Other Public Products
Issued by NWS Charleston, SC

Current Version | Previous Version | Graphics & Text | Print | Product List | Glossary On
Versions: 1 2 3 4 5 6 7 8 9 10 11 12 13 14 15 16 17 18 19 20 21 22 23 24 25 26 27 28 29 30 31 32 33 34 35 36 37 38 39 40 41 42 43 44 45 46 47 48 49 50
697 FPUS82 KCHS 221527 OPUCHS TEST...KCHS/KSAV Gateway Observations...TEST National Weather Service Charleston SC 1000 AM EST MON JAN 22 2018 NOTE: "fair" indicates few or no clouds below 12,000 feet with no significant weather and/or obstructions to visibility. SCZ050-WAZ558-NCZ071-TXZ119-213-PAZ071-DCZ001-FLZ074-172-MI076- NYZ176-178-MAZ016-IL014-TNZ027-NJZ106-GAZ044-MD014-221600- ...Gateway Observations for Charleston International... CITY SKY/WX TMP DP RH WIND PRES REMARKS Chas Airport CLOUDY 58 50 75 CALM 30.21R Seattle CLOUDY 40 38 93 S13 30.14R WCI 32 Charlotte CLOUDY 50 44 80 CALM 30.20R Dallas DFW SUNNY 48 25 40 W18G26 30.00R Dallas Love SUNNY 47 25 42 W13 30.02R Philladelphia CLOUDY 48 38 68 E5 30.18R Wash National CLOUDY 54 42 64 S7 30.16R Baltimore CLOUDY 49 39 68 NE3 30.15R Miami FAIR 78 67 68 SE13 30.14R Detroit CLOUDY 44 44 100 SE8 29.83F FOG Newark CLOUDY 44 39 82 NE6 30.19R Laguardia CLOUDY 40 36 86 NE8 30.20R WCI 34 J F K PTSUNNY 45 40 82 CALM 30.21R Boston Logan LGT RAIN 36 35 96 SE3 30.30 FOG Ft. Lauderdale FAIR 75 68 78 SE16 30.14R Chicago O`Hare LGT RAIN 50 47 89 S17 29.57R Chicago Midway CLOUDY 52 50 93 S22G29 29.58S Houston Bush MOSUNNY 59 34 39 NW13G21 30.04R Houston Hobby FAIR 61 32 33 NW15 30.03R Nashville LGT RAIN 59 41 51 SW6 29.95R Atlanta CLOUDY 51 45 79 SE12 30.12S $$ GAZ044-118-TXZ119-213-NCZ071-DCZ001-MDZ014-506-PAZ021-071-NJZ106- NYZ176-178-MAZ106-OHZ011-021-055-MIZ076-KYZ091-ILZ014-INZ047- MNZ060-ONZ431-221600- ...Gateway Observations for Savannah International... CITY SKY/WX TMP DP RH WIND PRES REMARKS Savannah Arpt PTSUNNY 60 49 66 E6 30.19S Atlanta CLOUDY 51 45 79 SE12 30.12S Charlotte CLOUDY 50 44 80 CALM 30.20R Dallas DFW SUNNY 48 25 40 W18G26 30.00R Houston Bush MOSUNNY 59 34 39 NW13G21 30.04R Wash National CLOUDY 54 42 64 S7 30.16R Wash Dulles CLOUDY 55 44 66 S7 30.15R Baltimore CLOUDY 49 39 68 NE3 30.15R Philadelphia CLOUDY 48 38 68 E5 30.18R Newark CLOUDY 44 39 82 NE6 30.19R Laguardia CLOUDY 40 36 86 NE8 30.20R WCI 34 J F K PTSUNNY 45 40 82 CALM 30.21R Boston LGT RAIN 36 35 96 SE3 30.30 FOG Pittsburg CLOUDY 50 47 89 SE8 30.00F Akron CLOUDY 49 44 83 S12 29.95S Cleveland CLOUDY 55 46 71 S14G26 29.92F Cincinnati CLOUDY 57 46 66 S16 29.86F Columbus FAIR 53 47 78 S10G16 29.91F Detroit CLOUDY 44 44 100 SE8 29.83F FOG Chicago O`Hare LGT RAIN 50 47 89 S17 29.57R Minneapolis CLOUDY 31 28 89 N20 29.76F WCI 19 Indianapolis HVY RAIN 51 49 92 S21 29.79F FOG Toronto Canada LGT RAIN 36 34 93 E15 30.03F FOG WCI 26 $$

USA.gov is the U.S. government's official web portal to all federal, state and local government web resources and services.